[[{"header":{"parameterUnit":"m.s-1","parameterCategory":1,"la1":30.2991,"la2":30.254,"lo1":-89.0895,"lo2":-89.0444,"dy":0.0017,"dx":0.0017,"nx":28,"ny":28,"refTime":"2026-01-07T03:00:00:Z","depth":0,"parameterNumber":2,"parameterNumberName":"U-component_of_WINDS"},"data":[0,0,0,0,0,0,0,0,0,0,0,0,0,0,0,0,0,0,0,0,0,0,0,0,0,0,0,0,0,0,0,0,0,0,0,0,0,0,0,0,0,0,0,0,0,0,0,0,0,0,0,0,0,0,0,0,0,0,1.1465,1.1466,0,1.1533,1.1534,1.1534,1.1542,1.1542,1.1541,1.154,1.1611,1.1613,1.1616,0,0,0,0,0,0,0,0,0,0,0,0,0,1.1345,1.1347,1.1465,1.1466,1.1467,1.1533,1.1534,1.1534,1.1542,1.1542,1.1541,1.154,1.161,1.1613,1.1616,0,0,0,0,0,0,0,0,0,0,0,0,0,1.1403,1.1348,1.1465,1.1479,1.1481,1.1532,1.1534,1.1535,1.1543,1.1542,1.1541,1.154,1.1609,1.1613,1.1616,1.1659,0,0,1.1628,1.1629,0,0,0,0,0,0,0,0,1.14,1.1408,1.1476,1.1478,1.148,1.1528,1.1517,1.1577,1.1543,1.1519,1.154,1.1539,1.1584,1.159,1.1605,1.1663,1.1666,1.1628,1.163,1.1632,1.1633,0,0,0,0,0,0,0,1.1396,1.1405,1.1492,1.1477,1.148,1.1482,1.1489,1.1528,1.1557,1.1521,1.1522,1.153,1.1585,1.1601,1.1606,1.1667,1.1628,1.1631,1.1634,1.1635,1.1764,1.1765,0,0,0,0,0,0,1.1389,1.1401,1.149,1.1494,1.1437,1.1485,1.1493,1.1514,1.1556,1.1562,1.153,1.153,1.1595,1.1602,1.1609,1.1662,1.1632,1.1635,1.1638,1.1762,1.1764,1.1765,0,0,0,0,0,0,1.1387,1.1397,1.1487,1.1448,1.146,1.1488,1.1511,1.1516,1.1532,1.1563,1.1568,1.1542,1.1595,1.1604,1.1647,1.1665,1.1637,1.1641,1.1761,1.1763,1.1765,1.1769,0,0,0,0,0,0,1.1383,1.1396,1.1412,1.1448,1.1462,1.1523,1.1512,1.1518,1.1538,1.1538,1.1575,1.158,1.1595,1.1641,1.165,1.167,1.1643,1.176,1.1762,1.1764,1.1768,1.1771,1.1774,0,0,0,0,0,1.1379,1.1411,1.1413,1.1424,1.1483,1.1525,1.1532,1.1548,1.1539,1.1556,1.1576,1.1579,1.1661,1.1645,1.1656,1.1677,1.1759,1.1761,1.1764,1.1766,1.177,1.1774,0,0,0,0,0,0,1.1377,1.1416,1.1419,1.1464,1.1491,1.1526,1.1548,1.1552,1.1582,1.1581,1.1599,1.1607,1.165,1.1667,1.1649,1.1721,1.1709,1.1714,1.1708,1.1712,1.1715,1.171,1.1647,0,0,0,0,0,1.1382,1.1413,1.1445,1.1482,1.1495,1.1519,1.1538,1.1547,1.1576,1.1588,1.1611,1.1639,1.1672,1.1693,1.1724,1.177,1.1779,1.179,1.1793,1.1795,1.1799,1.1825,1.1831,1.1774,1.1774,1.1774,0,0,1.1393,1.1418,1.1436,1.1482,1.1504,1.1535,1.1529,1.1562,1.1586,1.1593,1.1635,1.1653,1.1686,1.1731,1.1752,1.1747,1.1817,1.1798,1.18,1.1803,1.1828,1.1834,1.1839,1.1776,1.1775,1.1775,0,0,1.1428,1.145,1.1483,1.1505,1.1538,1.1554,1.1562,1.1596,1.1608,1.165,1.1657,1.1685,1.174,1.1763,1.1782,1.1826,1.183,1.1836,1.1852,1.1877,1.1882,1.1886,1.1902,1.1907,1.184,1.184,1.184,0,1.1437,1.1484,1.1499,1.1533,1.1553,1.1561,1.1594,1.1615,1.1657,1.1671,1.1665,1.1734,1.1757,1.1807,1.1818,1.1833,1.1843,1.1832,1.188,1.1884,1.1888,1.1904,1.191,1.184,1.184,1.184,1.184,0,1.1494,1.1526,1.1549,1.1589,1.1612,1.1645,1.1666,1.1687,1.1695,1.1711,1.1754,1.1781,1.1819,1.1831,1.1839,1.1883,1.1879,1.1876,1.1865,1.1894,1.1909,1.1915,1.1841,1.1841,1.1841,1.1841,0,0,1.1531,1.1578,1.1586,1.1604,1.1641,1.1667,1.1701,1.1737,1.1755,1.1783,1.1812,1.1859,1.1856,1.1878,1.1888,1.191,1.1944,1.1905,1.1906,1.1912,1.1994,1.1996,1.2003,1.1946,1.1947,1.1948,1.1991,0,1.157,1.163,1.1645,1.1697,1.1727,1.1735,1.1764,1.179,1.1806,1.1835,1.1853,1.1885,1.188,1.1893,1.1915,1.1935,1.1961,1.1932,1.1974,1.1975,1.1966,1.201,1.2013,1.2052,1.1997,1.1998,1.1999,0,1.1625,1.1654,1.1709,1.1742,1.1755,1.1781,1.1815,1.1842,1.1872,1.1882,1.1906,1.1914,1.195,1.1937,1.1987,1.1967,1.1985,1.1998,1.1999,1.2004,1.1989,1.2017,1.2065,1.2071,1.2008,1.2007,1.2007,0,1.1647,1.17,1.1739,1.1754,1.1794,1.1812,1.1829,1.1858,1.1879,1.1909,1.1922,1.1956,1.1975,1.2001,1.2018,1.2007,1.2067,1.2055,1.2077,1.2076,1.2089,1.2088,1.2142,1.21,1.21,1.21,1.21,0,1.169,1.1723,1.1749,1.1774,1.1811,1.1828,1.1864,1.1882,1.1907,1.1936,1.1944,1.197,1.1992,1.2021,1.2035,1.2074,1.2082,1.2092,1.2095,1.2091,1.209,1.2104,1.2102,1.2102,1.2101,1.2101,1.2101,0,1.172,1.174,1.1783,1.1817,1.1826,1.1852,1.1881,1.1905,1.1921,1.1957,1.1966,1.1992,1.2027,1.2046,1.209,1.21,1.2144,1.2146,1.2133,1.2135,1.2156,1.2154,1.222,1.2229,1.2181,1.2182,1.2182,0,1.1747,1.1772,1.1809,1.1828,1.1845,1.1876,1.1897,1.1915,1.1936,1.1972,1.1992,1.2027,1.2056,1.2112,1.2135,1.2168,1.2171,1.2192,1.2177,1.2172,1.2172,1.2171,1.2173,1.2195,1.2196,1.2196,1.2196,0,1.1792,1.18,1.183,1.1863,1.1887,1.1914,1.1941,1.1956,1.1978,1.2002,1.2037,1.206,1.2105,1.214,1.2175,1.2194,1.2199,1.2201,1.2208,1.2204,1.2196,1.2201,1.2141,1.2199,1.2199,1.2199,1.2199,1.2199,1.1822,1.1845,1.1874,1.1906,1.1928,1.1953,1.1977,1.1996,1.2026,1.2064,1.2072,1.211,1.2139,1.2187,1.2206,1.2236,1.2233,1.2242,1.2245,1.2247,1.2248,1.2191,1.2243,1.2243,1.2243,1.2243,1.2243,0,1.1867,1.1886,1.1916,1.1953,1.1979,1.1981,1.201,1.2032,1.2065,1.2091,1.212,1.2161,1.2195,1.222,1.2255,1.2274,1.2277,1.2283,1.2282,1.2286,1.2249,1.224,1.2279,1.2279,1.2279,1.2279,1.2279,1.2279,1.1894,1.1933,1.1945,1.1995,1.2014,1.205,1.2067,1.209,1.2111,1.2157,1.2185,1.2201,1.2227,1.2264,1.2295,1.2302,1.2315,1.232,1.2327,1.2292,1.2288,1.2285,1.2276,1.2322,1.2322,1.2361,1.2361,1.2361]},{"header":{"parameterUnit":"m.s-1","parameterCategory":1,"la1":30.2991,"la2":30.254,"lo1":-89.0895,"lo2":-89.0444,"dy":0.0017,"dx":0.0017,"nx":28,"ny":28,"refTime":"2026-01-07T03:00:00:Z","depth":0,"parameterNumber":3,"parameterNumberName":"V-component_of_WINDS"},"data":[0,0,0,0,0,0,0,0,0,0,0,0,0,0,0,0,0,0,0,0,0,0,0,0,0,0,0,0,0,0,0,0,0,0,0,0,0,0,0,0,0,0,0,0,0,0,0,0,0,0,0,0,0,0,0,0,0,0,1.6441,1.6441,0,1.6428,1.6427,1.6427,1.6408,1.6408,1.6408,1.6407,1.6393,1.6393,1.6393,0,0,0,0,0,0,0,0,0,0,0,0,0,1.6451,1.6451,1.6441,1.6441,1.6441,1.6428,1.6427,1.6427,1.6408,1.6408,1.6408,1.6407,1.6393,1.6393,1.6393,0,0,0,0,0,0,0,0,0,0,0,0,0,1.6443,1.6451,1.6441,1.643,1.6429,1.6428,1.6427,1.6427,1.6409,1.6408,1.6408,1.6407,1.6393,1.6393,1.6393,1.6401,0,0,1.6392,1.6392,0,0,0,0,0,0,0,0,1.6444,1.6443,1.6432,1.6431,1.643,1.6419,1.6425,1.6418,1.6409,1.6416,1.6407,1.6407,1.6402,1.6401,1.6399,1.64,1.64,1.6392,1.6392,1.6392,1.6392,0,0,0,0,0,0,0,1.6444,1.6443,1.6436,1.6432,1.643,1.6426,1.6424,1.6424,1.6412,1.6416,1.6414,1.6413,1.6401,1.64,1.6399,1.64,1.6392,1.6392,1.6392,1.6392,1.6407,1.6407,0,0,0,0,0,0,1.6446,1.6444,1.6436,1.6436,1.6436,1.6426,1.6424,1.6423,1.6412,1.641,1.6413,1.6412,1.64,1.6399,1.6398,1.6408,1.6392,1.6392,1.6392,1.6406,1.6407,1.6408,0,0,0,0,0,0,1.6447,1.6446,1.6437,1.6439,1.6438,1.6426,1.6425,1.6423,1.6421,1.641,1.6408,1.6414,1.64,1.6399,1.6401,1.6407,1.6392,1.6392,1.6406,1.6407,1.6407,1.6427,0,0,0,0,0,0,1.6447,1.6446,1.6449,1.644,1.6438,1.644,1.6426,1.6423,1.6421,1.642,1.641,1.6408,1.6399,1.6401,1.64,1.6406,1.6391,1.6405,1.6406,1.6407,1.6425,1.6428,1.643,0,0,0,0,0,1.6448,1.6455,1.645,1.6449,1.6442,1.644,1.6439,1.6429,1.6422,1.6425,1.6418,1.6408,1.6406,1.6401,1.6401,1.6407,1.6405,1.6406,1.6407,1.6424,1.6427,1.643,0,0,0,0,0,0,1.6466,1.6454,1.6447,1.6452,1.6447,1.6437,1.644,1.6432,1.6429,1.6428,1.6415,1.6413,1.6417,1.6412,1.6406,1.6414,1.6404,1.6405,1.6417,1.642,1.6423,1.6424,1.6391,0,0,0,0,0,1.6471,1.6471,1.646,1.6465,1.6463,1.6452,1.6451,1.6444,1.6438,1.6436,1.6429,1.6424,1.6422,1.6421,1.6418,1.6424,1.6422,1.6428,1.6431,1.6433,1.6434,1.6437,1.6439,1.6411,1.6411,1.6411,0,0,1.648,1.6474,1.6474,1.6469,1.6464,1.6464,1.6451,1.6451,1.6451,1.6436,1.6438,1.6432,1.6425,1.643,1.6431,1.6426,1.6441,1.6434,1.6436,1.6436,1.6438,1.6441,1.6443,1.6412,1.6412,1.6412,0,0,1.6498,1.6493,1.6497,1.6492,1.6486,1.6478,1.6479,1.647,1.6466,1.6467,1.6456,1.6456,1.6453,1.6448,1.6446,1.6462,1.6453,1.6462,1.6474,1.6477,1.6479,1.6481,1.6487,1.6489,1.6463,1.6463,1.6463,0,1.6511,1.6511,1.65,1.6501,1.6499,1.6485,1.6489,1.6485,1.6478,1.6477,1.6471,1.6467,1.6462,1.6465,1.6469,1.6467,1.6468,1.6463,1.648,1.6482,1.6483,1.6489,1.6491,1.6464,1.6464,1.6464,1.6463,0,1.6527,1.6527,1.6531,1.6524,1.6523,1.6525,1.6515,1.6514,1.6507,1.65,1.6502,1.6495,1.6491,1.6491,1.6484,1.6493,1.649,1.6482,1.6472,1.6487,1.6492,1.6494,1.6465,1.6465,1.6465,1.6464,0,0,1.6555,1.6543,1.6545,1.6542,1.6533,1.6533,1.6535,1.6531,1.6531,1.6527,1.6528,1.6526,1.6519,1.6516,1.6508,1.6511,1.6524,1.6502,1.6502,1.6507,1.6534,1.654,1.6543,1.6518,1.6519,1.6519,1.6535,0,1.6571,1.6574,1.6565,1.657,1.657,1.6557,1.6559,1.6554,1.6548,1.6547,1.654,1.6539,1.6529,1.6527,1.6529,1.6522,1.6529,1.6521,1.6519,1.6519,1.6522,1.6545,1.6552,1.6567,1.6536,1.6537,1.6537,0,1.6591,1.6587,1.6593,1.6584,1.6584,1.6586,1.6581,1.6581,1.6575,1.657,1.6567,1.6558,1.6559,1.6549,1.6551,1.6545,1.6544,1.654,1.6541,1.654,1.6529,1.6545,1.6571,1.6574,1.654,1.654,1.6539,0,1.6611,1.6608,1.6611,1.6609,1.6599,1.66,1.6596,1.659,1.6588,1.6585,1.6584,1.658,1.6578,1.6576,1.6566,1.6559,1.6569,1.6558,1.6565,1.6565,1.6567,1.6567,1.6593,1.6566,1.6566,1.6566,1.6566,0,1.663,1.6634,1.662,1.6622,1.6626,1.6615,1.6619,1.6613,1.6608,1.6608,1.6597,1.6597,1.6585,1.6584,1.6576,1.6579,1.6578,1.6574,1.6572,1.6575,1.6576,1.6574,1.6573,1.6567,1.6567,1.6567,1.6567,0,1.6654,1.6645,1.6647,1.6638,1.6635,1.6639,1.663,1.6632,1.6625,1.6625,1.6625,1.6614,1.6613,1.6603,1.6599,1.6594,1.6599,1.6595,1.6601,1.66,1.6607,1.6607,1.6634,1.6636,1.6608,1.6608,1.6608,0,1.6667,1.667,1.666,1.666,1.6656,1.6656,1.6654,1.6643,1.6642,1.6635,1.6638,1.6635,1.6632,1.6631,1.6622,1.6619,1.6615,1.6624,1.6614,1.6617,1.6615,1.6615,1.6615,1.6627,1.6627,1.6627,1.6628,0,1.6691,1.6686,1.6684,1.6681,1.668,1.6676,1.6673,1.6673,1.6661,1.666,1.6658,1.6656,1.6652,1.665,1.6646,1.6641,1.6632,1.6631,1.6632,1.6636,1.6639,1.6638,1.6607,1.663,1.663,1.663,1.663,1.663,1.6709,1.6711,1.6705,1.6704,1.67,1.6696,1.6697,1.669,1.6689,1.6685,1.6679,1.6678,1.6672,1.6665,1.6661,1.666,1.6655,1.6657,1.6658,1.6659,1.666,1.6639,1.6659,1.6659,1.6659,1.6659,1.6659,0,1.6733,1.6728,1.6727,1.6722,1.6721,1.6713,1.6708,1.6708,1.6707,1.6702,1.67,1.6698,1.6696,1.6688,1.6684,1.6685,1.6681,1.6685,1.6685,1.6684,1.6665,1.6664,1.6688,1.6688,1.6688,1.6688,1.6688,1.6688,1.6745,1.6747,1.6742,1.6743,1.6738,1.6737,1.6735,1.6732,1.6728,1.6727,1.6725,1.672,1.6713,1.671,1.6707,1.6705,1.6704,1.6709,1.6706,1.6688,1.6685,1.6683,1.6682,1.6709,1.6709,1.6725,1.6725,1.6725]}]]